Agassiz, British Columbia

9:43 PM PST on November 22, 2017 (GMT -0800)
Agassiz

Weather History for CWZA - September, 2012

Change the Weather History Date:

Monday, September 24, 2012

  Actual Average Record
Temperature  
Mean Temperature 59 °F -  
Max Temperature 67 °F 61 °F - ()
Min Temperature 51 °F 45 °F - ()
Degree Days  
Heating Degree Days 6    
Growing Degree Days 9 (Base 50)    
Moisture  
Dew Point 54 °F    
Average Humidity 84    
Maximum Humidity 97    
Minimum Humidity 62    
Precipitation  
Precipitation 0.00 in 0.21 in - ()
Sea Level Pressure  
Sea Level Pressure 30.12 in    
Wind  
Wind Speed 1 mph ()    
Max Wind Speed 4 mph    
Max Gust Speed -    
T = Trace of Precipitation, MM = Missing Value Source: Averaged Metar Reports

Daily Weather History Graph

Daily Weather History Graph

Search for Another Location

Airport or City:

Trip Planner

Search our weather history database for the weather conditions in past years. The results will help you decide how hot, cold, wet, or windy it might be!

Date:

Astronomy

Sep. 24, 2012 Rise Set
Actual Time 6:57 AM PDT 6:59 PM PDT
Civil Twilight 6:25 AM PDT 7:31 PM PDT
Nautical Twilight 5:48 AM PDT 8:08 PM PDT
Astronomical Twilight 5:09 AM PDT 8:46 PM PDT
Moon 4:11 PM PDT (9/24) 12:53 AM PDT (9/24)
Length of Visible Light 13h 05m
Length of Day
12h 02m
Waxing Gibbous, 71% of the Moon is Illuminated
Sep 24
Waxing Gibbous
Sep 29
Full
Oct 8
Last Quarter
Oct 15
New
Oct 21
First Quarter

Hourly Weather History & Observations

Time (PDT) Temp. Dew Point Humidity Pressure Visibility Wind Dir Wind Speed Gust Speed Precip Events Conditions
12:00 AM 53.2 °F 52.2 °F 96% 30.15 in - Calm Calm - N/A   Unknown
2:00 AM 54.0 °F 53.2 °F 97% 30.14 in - Calm Calm - N/A   Unknown
3:00 AM 55.2 °F 54.1 °F 96% 30.14 in - Calm Calm - N/A   Unknown
4:00 AM 55.6 °F 54.3 °F 96% 30.14 in - Calm Calm - N/A   Unknown
5:00 AM 56 °F 54 °F 90% 30.13 in - NNW 1.2 mph - -  
5:00 AM 55.6 °F 53.8 °F 94% 30.13 in - NNW 1.2 mph - N/A   Unknown
6:00 AM 55.6 °F 54.1 °F 95% 30.12 in - Calm Calm - N/A   Unknown
7:00 AM 55.6 °F 54.3 °F 96% 30.13 in - NNW 1.2 mph - N/A   Unknown
8:00 AM 56.7 °F 55.0 °F 94% 30.14 in - Calm Calm - N/A   Unknown
9:00 AM 57.6 °F 55.0 °F 91% 30.13 in - SSW 1.2 mph - N/A   Unknown
10:00 AM 57.7 °F 54.3 °F 88% 30.14 in - SSW 2.3 mph - N/A   Unknown
11:00 AM 57 °F 53 °F 83% 30.14 in - South 3.5 mph - -  
11:00 AM 57.4 °F 53.2 °F 86% 30.14 in - South 3.5 mph - N/A   Unknown
12:00 PM 58.5 °F 53.8 °F 84% 30.15 in - South 2.3 mph - N/A   Unknown
1:00 PM 61.2 °F 54.1 °F 78% 30.14 in - East 2.3 mph - N/A   Unknown
2:00 PM 65.3 °F 55.0 °F 69% 30.12 in - West 1.2 mph - N/A   Unknown
3:00 PM 65.5 °F 55.0 °F 69% 30.09 in - SSW 1.2 mph - N/A   Unknown
4:00 PM 66.0 °F 55.9 °F 70% 30.09 in - South 3.5 mph - N/A   Unknown
5:00 PM 65 °F 55 °F 62% 30.09 in - SSE 3.5 mph - -  
5:00 PM 64.9 °F 55.0 °F 70% 30.09 in - SSE 3.5 mph - N/A   Unknown
6:00 PM 63.9 °F 56.1 °F 76% 30.09 in - East 1.2 mph - N/A   Unknown
7:00 PM 64.0 °F 54.5 °F 71% 30.09 in - WNW 1.2 mph - N/A   Unknown
8:00 PM 62.4 °F 54.9 °F 76% 30.09 in - SSE 3.5 mph - N/A   Unknown
9:00 PM 60.1 °F 54.7 °F 82% 30.11 in - SW 2.3 mph - N/A   Unknown
10:00 PM 58.3 °F 55.9 °F 92% 30.11 in - SE 3.5 mph - N/A   Unknown
11:00 PM 58 °F 55 °F 88% 30.11 in - ESE 2.3 mph - -  
11:00 PM 58.5 °F 55.4 °F 90% 30.11 in - ESE 2.3 mph - N/A   Unknown